Year,Month,Day,Hour,Minute,Value (Times are PST for temperature in C)
2008,09,01,00,00,9.20
2008,09,01,00,01,9.10
2008,09,01,00,02,9.10
2008,09,01,00,03,9.10
2008,09,01,00,04,9.10
2008,09,01,00,05,9.10
2008,09,01,00,06,9.10
2008,09,01,00,07,9.10
2008,09,01,00,08,9.10
2008,09,01,00,09,9.00
2008,09,01,00,10,9.00
2008,09,01,00,11,9.00
2008,09,01,00,12,9.00
2008,09,01,00,13,9.00
2008,09,01,00,14,9.00
2008,09,01,00,15,8.90
2008,09,01,00,16,8.90
2008,09,01,00,17,8.90
2008,09,01,00,18,8.90
2008,09,01,00,19,8.90
2008,09,01,00,20,8.80
2008,09,01,00,21,8.80
2008,09,01,00,22,8.80
2008,09,01,00,23,8.70
2008,09,01,00,24,8.70
2008,09,01,00,25,8.70
2008,09,01,00,26,8.70
2008,09,01,00,27,8.70
2008,09,01,00,28,8.70
2008,09,01,00,29,8.70
2008,09,01,00,30,8.70
2008,09,01,00,31,8.60
2008,09,01,00,32,8.60
2008,09,01,00,33,8.60
2008,09,01,00,34,8.60
2008,09,01,00,35,8.60
2008,09,01,00,36,8.60
2008,09,01,00,37,8.60
2008,09,01,00,38,8.60
2008,09,01,00,39,8.60
2008,09,01,00,40,8.60
2008,09,01,00,41,8.60
2008,09,01,00,42,8.60
2008,09,01,00,43,8.60
2008,09,01,00,44,8.60
2008,09,01,00,45,8.60
2008,09,01,00,46,8.50
2008,09,01,00,47,8.50
2008,09,01,00,48,8.50
2008,09,01,00,49,8.50
2008,09,01,00,50,8.50
2008,09,01,00,51,8.50
2008,09,01,00,52,8.50
2008,09,01,00,53,8.50
2008,09,01,00,54,8.50
2008,09,01,00,55,8.50
2008,09,01,00,56,8.50
2008,09,01,00,57,8.50
2008,09,01,00,58,8.50
2008,09,01,00,59,8.50
2008,09,01,01,00,8.50
2008,09,01,01,01,8.50
2008,09,01,01,02,8.50
2008,09,01,01,03,8.50
2008,09,01,01,04,8.50
2008,09,01,01,05,8.50
2008,09,01,01,06,8.50
2008,09,01,01,07,8.50
2008,09,01,01,08,8.50
2008,09,01,01,09,8.50
2008,09,01,01,10,8.50
2008,09,01,01,11,8.50
2008,09,01,01,12,8.40
2008,09,01,01,13,8.40
2008,09,01,01,14,8.40
2008,09,01,01,15,8.40
2008,09,01,01,16,8.30
2008,09,01,01,17,8.30
2008,09,01,01,18,8.30
2008,09,01,01,19,8.30
2008,09,01,01,20,8.30
2008,09,01,01,21,8.30
2008,09,01,01,22,8.30
2008,09,01,01,23,8.30
2008,09,01,01,24,8.30
2008,09,01,01,25,8.20
2008,09,01,01,26,8.20
2008,09,01,01,27,8.20
2008,09,01,01,28,8.20
2008,09,01,01,29,8.20
2008,09,01,01,30,8.20
2008,09,01,01,31,8.20
2008,09,01,01,32,8.20
2008,09,01,01,33,8.20
2008,09,01,01,34,8.20
2008,09,01,01,35,8.20
2008,09,01,01,36,8.20
2008,09,01,01,37,8.20
2008,09,01,01,38,8.20
2008,09,01,01,39,8.20
2008,09,01,01,40,8.20
2008,09,01,01,41,8.20
2008,09,01,01,42,8.20
2008,09,01,01,43,8.20
2008,09,01,01,44,8.20
2008,09,01,01,45,8.20
2008,09,01,01,46,8.20
2008,09,01,01,47,8.20
2008,09,01,01,48,8.20
2008,09,01,01,49,8.10
2008,09,01,01,50,8.10
2008,09,01,01,51,8.10
2008,09,01,01,52,8.10
2008,09,01,01,53,8.10
2008,09,01,01,54,8.10
2008,09,01,01,55,8.10
2008,09,01,01,56,8.10
2008,09,01,01,57,8.10
2008,09,01,01,58,8.10
2008,09,01,01,59,8.10
2008,09,01,02,00,8.10
2008,09,01,02,01,8.10
2008,09,01,02,02,8.10
2008,09,01,02,03,8.10
2008,09,01,02,04,8.10
2008,09,01,02,05,8.10
2008,09,01,02,06,8.10
2008,09,01,02,07,8.10
2008,09,01,02,08,8.10
2008,09,01,02,09,8.10
2008,09,01,02,10,8.10
2008,09,01,02,11,8.10
2008,09,01,02,12,8.10
2008,09,01,02,13,8.10
2008,09,01,02,14,8.10
2008,09,01,02,15,8.10
2008,09,01,02,16,8.10
2008,09,01,02,17,8.00
2008,09,01,02,18,8.00
2008,09,01,02,19,8.00
2008,09,01,02,20,8.00
2008,09,01,02,21,8.00
2008,09,01,02,22,8.00
2008,09,01,02,23,8.00
2008,09,01,02,24,8.00
2008,09,01,02,25,8.00
2008,09,01,02,26,8.00
2008,09,01,02,27,8.00
2008,09,01,02,28,8.00
2008,09,01,02,29,8.00
2008,09,01,02,30,8.00
2008,09,01,02,31,7.90
2008,09,01,02,32,7.90
2008,09,01,02,33,7.90
2008,09,01,02,34,7.90
2008,09,01,02,35,7.90
2008,09,01,02,36,7.90
2008,09,01,02,37,7.90
2008,09,01,02,38,7.90
2008,09,01,02,39,7.80
2008,09,01,02,40,7.80
2008,09,01,02,41,7.80
2008,09,01,02,42,7.90
2008,09,01,02,43,7.90
2008,09,01,02,44,7.90
2008,09,01,02,45,7.90
2008,09,01,02,46,7.90
2008,09,01,02,47,7.90
2008,09,01,02,48,7.80
2008,09,01,02,49,7.80
2008,09,01,02,50,7.80
2008,09,01,02,51,7.80
2008,09,01,02,52,7.80
2008,09,01,02,53,7.80
2008,09,01,02,54,7.80
2008,09,01,02,55,7.80
2008,09,01,02,56,7.80
2008,09,01,02,57,7.80
2008,09,01,02,58,7.80
2008,09,01,02,59,7.80
2008,09,01,03,00,7.80
2008,09,01,03,01,7.80
2008,09,01,03,02,7.80
2008,09,01,03,03,7.70
2008,09,01,03,04,7.70
2008,09,01,03,05,7.70
2008,09,01,03,06,7.70
2008,09,01,03,07,7.70
2008,09,01,03,08,7.70
2008,09,01,03,09,7.70
2008,09,01,03,10,7.80
2008,09,01,03,11,7.80
2008,09,01,03,12,7.80
2008,09,01,03,13,7.80
2008,09,01,03,14,7.80
2008,09,01,03,15,7.80
2008,09,01,03,16,7.80
2008,09,01,03,17,7.80
2008,09,01,03,18,7.80
2008,09,01,03,19,7.80
2008,09,01,03,20,7.80
2008,09,01,03,21,7.80
2008,09,01,03,22,7.80
2008,09,01,03,23,7.80
2008,09,01,03,24,7.80
2008,09,01,03,25,7.80
2008,09,01,03,26,7.80
2008,09,01,03,27,7.80
2008,09,01,03,28,7.80
2008,09,01,03,29,7.80
2008,09,01,03,30,7.80
2008,09,01,03,31,7.80
2008,09,01,03,32,7.80
2008,09,01,03,33,7.80
2008,09,01,03,34,7.80
2008,09,01,03,35,7.80
2008,09,01,03,36,7.80
2008,09,01,03,37,7.80
2008,09,01,03,38,7.70
2008,09,01,03,39,7.70
2008,09,01,03,40,7.70
2008,09,01,03,41,7.70
2008,09,01,03,42,7.70
2008,09,01,03,43,7.60
2008,09,01,03,44,7.60
2008,09,01,03,45,7.60
2008,09,01,03,46,7.60
2008,09,01,03,47,7.60
2008,09,01,03,48,7.60
2008,09,01,03,49,7.60
2008,09,01,03,50,7.60
2008,09,01,03,51,7.50
2008,09,01,03,52,7.50
2008,09,01,03,53,7.50
2008,09,01,03,54,7.50
2008,09,01,03,55,7.50
2008,09,01,03,56,7.50
2008,09,01,03,57,7.50
2008,09,01,03,58,7.50
2008,09,01,03,59,7.50
2008,09,01,04,00,7.50
2008,09,01,04,01,7.40
2008,09,01,04,02,7.40
2008,09,01,04,03,7.40
2008,09,01,04,04,7.40
2008,09,01,04,05,7.40
2008,09,01,04,06,7.40
2008,09,01,04,07,7.30
2008,09,01,04,08,7.30
2008,09,01,04,09,7.30
2008,09,01,04,10,7.30
2008,09,01,04,11,7.30
2008,09,01,04,12,7.30
2008,09,01,04,13,7.30
2008,09,01,04,14,7.30
2008,09,01,04,15,7.30
2008,09,01,04,16,7.30
2008,09,01,04,17,7.30
2008,09,01,04,18,7.30
2008,09,01,04,19,7.30
2008,09,01,04,20,7.30
2008,09,01,04,21,7.30
2008,09,01,04,22,7.30
2008,09,01,04,23,7.30
2008,09,01,04,24,7.30
2008,09,01,04,25,7.30
2008,09,01,04,26,7.30
2008,09,01,04,27,7.30
2008,09,01,04,28,7.30
2008,09,01,04,29,7.30
2008,09,01,04,30,7.30
2008,09,01,04,31,7.30
2008,09,01,04,32,7.30
2008,09,01,04,33,7.30
2008,09,01,04,34,7.30
2008,09,01,04,35,7.30
2008,09,01,04,36,7.30
2008,09,01,04,37,7.30
2008,09,01,04,38,7.30
2008,09,01,04,39,7.30
2008,09,01,04,40,7.30
2008,09,01,04,41,7.30
2008,09,01,04,42,7.30
2008,09,01,04,43,7.30
2008,09,01,04,44,7.30
2008,09,01,04,45,7.30
2008,09,01,04,46,7.30
2008,09,01,04,47,7.30
2008,09,01,04,48,7.20
2008,09,01,04,49,7.20
2008,09,01,04,50,7.20
2008,09,01,04,51,7.20
2008,09,01,04,52,7.20
2008,09,01,04,53,7.20
2008,09,01,04,54,7.20
2008,09,01,04,55,7.20
2008,09,01,04,56,7.20
2008,09,01,04,57,7.20
2008,09,01,04,58,7.20
2008,09,01,04,59,7.10
2008,09,01,05,00,7.10
2008,09,01,05,01,7.10
2008,09,01,05,02,7.10
2008,09,01,05,03,7.10
2008,09,01,05,04,7.10
2008,09,01,05,05,7.10
2008,09,01,05,06,7.10
2008,09,01,05,07,7.10
2008,09,01,05,08,7.10
2008,09,01,05,09,7.10
2008,09,01,05,10,7.10
2008,09,01,05,11,7.10
2008,09,01,05,12,7.00
2008,09,01,05,13,7.00
2008,09,01,05,14,7.00
2008,09,01,05,15,7.00
2008,09,01,05,16,7.00
2008,09,01,05,17,7.00
2008,09,01,05,18,7.00
2008,09,01,05,19,7.00
2008,09,01,05,20,7.00
2008,09,01,05,21,7.00
2008,09,01,05,22,7.00
2008,09,01,05,23,7.00
2008,09,01,05,24,6.90
2008,09,01,05,25,6.90
2008,09,01,05,26,6.90
2008,09,01,05,27,6.90
2008,09,01,05,28,6.90
2008,09,01,05,29,6.90
2008,09,01,05,30,6.90
2008,09,01,05,31,6.90
2008,09,01,05,32,6.90
2008,09,01,05,33,6.90
2008,09,01,05,34,6.80
2008,09,01,05,35,6.80
2008,09,01,05,36,6.80
2008,09,01,05,37,6.80
2008,09,01,05,38,6.80
2008,09,01,05,39,6.80
2008,09,01,05,40,6.80
2008,09,01,05,41,6.80
2008,09,01,05,42,6.80
2008,09,01,05,43,6.80
2008,09,01,05,44,6.80
2008,09,01,05,45,6.80
2008,09,01,05,46,6.80
2008,09,01,05,47,6.80
2008,09,01,05,48,6.80
2008,09,01,05,49,6.80
2008,09,01,05,50,6.80
2008,09,01,05,51,6.80
2008,09,01,05,52,6.80
2008,09,01,05,53,6.80
2008,09,01,05,54,6.80
2008,09,01,05,55,6.80
2008,09,01,05,56,6.80
2008,09,01,05,57,6.80
2008,09,01,05,58,6.80
2008,09,01,05,59,6.80
2008,09,01,06,00,6.80
2008,09,01,06,01,6.80
2008,09,01,06,02,6.80
2008,09,01,06,03,6.80
2008,09,01,06,04,6.80
2008,09,01,06,05,6.80
2008,09,01,06,06,6.80
2008,09,01,06,07,6.80
2008,09,01,06,08,6.80
2008,09,01,06,09,6.80
2008,09,01,06,10,6.80
2008,09,01,06,11,6.80
2008,09,01,06,12,6.80
2008,09,01,06,13,6.80
2008,09,01,06,14,6.80
2008,09,01,06,15,6.80
2008,09,01,06,16,6.80
2008,09,01,06,17,6.80
2008,09,01,06,18,6.80
2008,09,01,06,19,6.80
2008,09,01,06,20,6.80
2008,09,01,06,21,6.80
2008,09,01,06,22,6.80
2008,09,01,06,23,6.80
2008,09,01,06,24,6.80
2008,09,01,06,25,6.80
2008,09,01,06,26,6.80
2008,09,01,06,27,6.80
2008,09,01,06,28,6.80
2008,09,01,06,29,6.80
2008,09,01,06,30,6.80
2008,09,01,06,31,6.80
2008,09,01,06,32,6.80
2008,09,01,06,33,6.80
2008,09,01,06,34,6.80
2008,09,01,06,35,6.80
2008,09,01,06,36,6.80
2008,09,01,06,37,6.80
2008,09,01,06,38,6.80
2008,09,01,06,39,6.80
2008,09,01,06,40,6.70
2008,09,01,06,41,6.70
2008,09,01,06,42,6.70
2008,09,01,06,43,6.70
2008,09,01,06,44,6.70
2008,09,01,06,45,6.70
2008,09,01,06,46,6.70
2008,09,01,06,47,6.70
2008,09,01,06,48,6.70
2008,09,01,06,49,6.70
2008,09,01,06,50,6.60
2008,09,01,06,51,6.60
2008,09,01,06,52,6.60
2008,09,01,06,53,6.60
2008,09,01,06,54,6.60
2008,09,01,06,55,6.60
2008,09,01,06,56,6.60
2008,09,01,06,57,6.60
2008,09,01,06,58,6.60
2008,09,01,06,59,6.60
2008,09,01,07,00,6.60
2008,09,01,07,01,6.60
2008,09,01,07,02,6.60
2008,09,01,07,03,6.60
2008,09,01,07,04,6.60
2008,09,01,07,05,6.60
2008,09,01,07,06,6.60
2008,09,01,07,07,6.60
2008,09,01,07,08,6.60
2008,09,01,07,09,6.60
2008,09,01,07,10,6.60
2008,09,01,07,11,6.60
2008,09,01,07,12,6.60
2008,09,01,07,13,6.60
2008,09,01,07,14,6.60
2008,09,01,07,15,6.60
2008,09,01,07,16,6.60
2008,09,01,07,17,6.60
2008,09,01,07,18,6.60
2008,09,01,07,19,6.60
2008,09,01,07,20,6.60
2008,09,01,07,21,6.60
2008,09,01,07,22,6.70
2008,09,01,07,23,6.70
2008,09,01,07,24,6.70
2008,09,01,07,25,6.70
2008,09,01,07,26,6.80
2008,09,01,07,27,6.80
2008,09,01,07,28,6.80
2008,09,01,07,29,6.80
2008,09,01,07,30,6.80
2008,09,01,07,31,6.80
2008,09,01,07,32,6.80
2008,09,01,07,33,6.80
2008,09,01,07,34,6.80
2008,09,01,07,35,6.90
2008,09,01,07,36,6.90
2008,09,01,07,37,6.90
2008,09,01,07,38,6.90
2008,09,01,07,39,6.90
2008,09,01,07,40,6.90
2008,09,01,07,41,7.00
2008,09,01,07,42,7.00
2008,09,01,07,43,7.00
2008,09,01,07,44,7.00
2008,09,01,07,45,7.00
2008,09,01,07,46,7.10
2008,09,01,07,47,7.10
2008,09,01,07,48,7.10
2008,09,01,07,49,7.10
2008,09,01,07,50,7.20
2008,09,01,07,51,7.20
2008,09,01,07,52,7.20
2008,09,01,07,53,7.20
2008,09,01,07,54,7.30
2008,09,01,07,55,7.30
2008,09,01,07,56,7.30
2008,09,01,07,57,7.30
2008,09,01,07,58,7.30
2008,09,01,07,59,7.30
2008,09,01,08,00,7.30
2008,09,01,08,01,7.30
2008,09,01,08,02,7.40
2008,09,01,08,03,7.40
2008,09,01,08,04,7.50
2008,09,01,08,05,7.50
2008,09,01,08,06,7.50
2008,09,01,08,07,7.60
2008,09,01,08,08,7.60
2008,09,01,08,09,7.60
2008,09,01,08,10,7.70
2008,09,01,08,11,7.70
2008,09,01,08,12,7.70
2008,09,01,08,13,7.80
2008,09,01,08,14,7.80
2008,09,01,08,15,7.80
2008,09,01,08,16,7.80
2008,09,01,08,17,7.80
2008,09,01,08,18,7.80
2008,09,01,08,19,7.90
2008,09,01,08,20,7.90
2008,09,01,08,21,8.00
2008,09,01,08,22,8.00
2008,09,01,08,23,8.00
2008,09,01,08,24,8.10
2008,09,01,08,25,8.10
2008,09,01,08,26,8.10
2008,09,01,08,27,8.20
2008,09,01,08,28,8.20
2008,09,01,08,29,8.20
2008,09,01,08,30,8.20
2008,09,01,08,31,8.30
2008,09,01,08,32,8.30
2008,09,01,08,33,8.40
2008,09,01,08,34,8.40
2008,09,01,08,35,8.50
2008,09,01,08,36,8.60
2008,09,01,08,37,8.70
2008,09,01,08,38,8.70
2008,09,01,08,39,8.80
2008,09,01,08,40,8.80
2008,09,01,08,41,8.90
2008,09,01,08,42,8.90
2008,09,01,08,43,9.00
2008,09,01,08,44,9.00
2008,09,01,08,45,9.00
2008,09,01,08,46,9.10
2008,09,01,08,47,9.10
2008,09,01,08,48,9.20
2008,09,01,08,49,9.20
2008,09,01,08,50,9.20
2008,09,01,08,51,9.20
2008,09,01,08,52,9.30
2008,09,01,08,53,9.30
2008,09,01,08,54,9.30
2008,09,01,08,55,9.40
2008,09,01,08,56,9.40
2008,09,01,08,57,9.40
2008,09,01,08,58,9.50
2008,09,01,08,59,9.50
2008,09,01,09,00,9.60
2008,09,01,09,01,9.60
2008,09,01,09,02,9.60
2008,09,01,09,03,9.70
2008,09,01,09,04,9.70
2008,09,01,09,05,9.70
2008,09,01,09,06,9.70
2008,09,01,09,07,9.70
2008,09,01,09,08,9.80
2008,09,01,09,09,9.80
2008,09,01,09,10,9.90
2008,09,01,09,11,9.90
2008,09,01,09,12,9.90
2008,09,01,09,13,9.90
2008,09,01,09,14,9.90
2008,09,01,09,15,10.00
2008,09,01,09,16,10.10
2008,09,01,09,17,10.10
2008,09,01,09,18,10.10
2008,09,01,09,19,10.10
2008,09,01,09,20,10.20
2008,09,01,09,21,10.20
2008,09,01,09,22,10.20
2008,09,01,09,23,10.30
2008,09,01,09,24,10.30
2008,09,01,09,25,10.30
2008,09,01,09,26,10.40
2008,09,01,09,27,10.40
2008,09,01,09,28,10.40
2008,09,01,09,29,10.40
2008,09,01,09,30,10.60
2008,09,01,09,31,10.60
2008,09,01,09,32,10.60
2008,09,01,09,33,10.70
2008,09,01,09,34,10.80
2008,09,01,09,35,10.80
2008,09,01,09,36,10.90
2008,09,01,09,37,10.90
2008,09,01,09,38,11.00
2008,09,01,09,39,11.10
2008,09,01,09,40,11.10
2008,09,01,09,41,11.20
2008,09,01,09,42,11.20
2008,09,01,09,43,11.20
2008,09,01,09,44,11.20
2008,09,01,09,45,11.30
2008,09,01,09,46,11.30
2008,09,01,09,47,11.30
2008,09,01,09,48,11.40
2008,09,01,09,49,11.40
2008,09,01,09,50,11.40
2008,09,01,09,51,11.40
2008,09,01,09,52,11.40
2008,09,01,09,53,11.60
2008,09,01,09,54,11.60
2008,09,01,09,55,11.60
2008,09,01,09,56,11.60
2008,09,01,09,57,11.70
2008,09,01,09,58,11.70
2008,09,01,09,59,11.80
2008,09,01,10,00,11.80
2008,09,01,10,01,11.80
2008,09,01,10,02,11.80
2008,09,01,10,03,11.90
2008,09,01,10,04,11.90
2008,09,01,10,05,12.00
2008,09,01,10,06,12.10
2008,09,01,10,07,12.20
2008,09,01,10,08,12.30
2008,09,01,10,09,12.30
2008,09,01,10,10,12.30
2008,09,01,10,11,12.40
2008,09,01,10,12,12.50
2008,09,01,10,13,12.50
2008,09,01,10,14,12.60
2008,09,01,10,15,12.70
2008,09,01,10,16,12.80
2008,09,01,10,17,12.80
2008,09,01,10,18,12.80
2008,09,01,10,19,12.90
2008,09,01,10,20,13.00
2008,09,01,10,21,13.00
2008,09,01,10,22,13.00
2008,09,01,10,23,13.10
2008,09,01,10,24,13.10
2008,09,01,10,25,13.10
2008,09,01,10,26,13.20
2008,09,01,10,27,13.20
2008,09,01,10,28,13.20
2008,09,01,10,29,13.20
2008,09,01,10,30,13.20
2008,09,01,10,31,13.20
2008,09,01,10,32,13.30
2008,09,01,10,33,13.30
2008,09,01,10,34,13.30
2008,09,01,10,35,13.30
2008,09,01,10,36,13.30
2008,09,01,10,37,13.30
2008,09,01,10,38,13.30
2008,09,01,10,39,13.30
2008,09,01,10,40,13.40
2008,09,01,10,41,13.40
2008,09,01,10,42,13.50
2008,09,01,10,43,13.50
2008,09,01,10,44,13.60
2008,09,01,10,45,13.60
2008,09,01,10,46,13.60
2008,09,01,10,47,13.70
2008,09,01,10,48,13.70
2008,09,01,10,49,13.80
2008,09,01,10,50,13.90
2008,09,01,10,51,13.90
2008,09,01,10,52,14.00
2008,09,01,10,53,14.00
2008,09,01,10,54,14.10
2008,09,01,10,55,14.10
2008,09,01,10,56,14.20
2008,09,01,10,57,14.20
2008,09,01,10,58,14.30
2008,09,01,10,59,14.30
2008,09,01,11,00,14.40
2008,09,01,11,01,14.40
2008,09,01,11,02,14.40
2008,09,01,11,03,14.40
2008,09,01,11,04,14.40
2008,09,01,11,05,14.50
2008,09,01,11,06,14.50
2008,09,01,11,07,14.50
2008,09,01,11,08,14.60
2008,09,01,11,09,14.60
2008,09,01,11,10,14.60
2008,09,01,11,11,14.60
2008,09,01,11,12,14.70
2008,09,01,11,13,14.70
2008,09,01,11,14,14.70
2008,09,01,11,15,14.70
2008,09,01,11,16,14.70
2008,09,01,11,17,14.70
2008,09,01,11,18,14.70
2008,09,01,11,19,14.70
2008,09,01,11,20,14.70
2008,09,01,11,21,14.70
2008,09,01,11,22,14.70
2008,09,01,11,23,14.70
2008,09,01,11,24,14.70
2008,09,01,11,25,14.70
2008,09,01,11,26,14.70
2008,09,01,11,27,14.70
2008,09,01,11,28,14.70
2008,09,01,11,29,14.70
2008,09,01,11,30,14.70
2008,09,01,11,31,14.70
2008,09,01,11,32,14.70
2008,09,01,11,33,14.70
2008,09,01,11,34,14.70
2008,09,01,11,35,14.70
2008,09,01,11,36,14.60
2008,09,01,11,37,14.60
2008,09,01,11,38,14.50
2008,09,01,11,39,14.50
2008,09,01,11,40,14.40
2008,09,01,11,41,14.40
2008,09,01,11,42,14.40
2008,09,01,11,43,14.40
2008,09,01,11,44,14.40
2008,09,01,11,45,14.30
2008,09,01,11,46,14.40
2008,09,01,11,47,14.40
2008,09,01,11,48,14.40
2008,09,01,11,49,14.40
2008,09,01,11,50,14.40
2008,09,01,11,51,14.40
2008,09,01,11,52,14.40
2008,09,01,11,53,14.40
2008,09,01,11,54,14.40
2008,09,01,11,55,14.40
2008,09,01,11,56,14.40
2008,09,01,11,57,14.50
2008,09,01,11,58,14.50
2008,09,01,11,59,14.50
2008,09,01,12,00,14.50
2008,09,01,12,01,14.50
2008,09,01,12,02,14.50
2008,09,01,12,03,14.50
2008,09,01,12,04,14.50
2008,09,01,12,05,14.50
2008,09,01,12,06,14.50
2008,09,01,12,07,14.60
2008,09,01,12,08,14.60
2008,09,01,12,09,14.60
2008,09,01,12,10,14.60
2008,09,01,12,11,14.60
2008,09,01,12,12,14.60
2008,09,01,12,13,14.60
2008,09,01,12,14,14.60
2008,09,01,12,15,14.60
2008,09,01,12,16,14.70
2008,09,01,12,17,14.70
2008,09,01,12,18,14.70
2008,09,01,12,19,14.70
2008,09,01,12,20,14.70
2008,09,01,12,21,14.70
2008,09,01,12,22,14.80
2008,09,01,12,23,14.80
2008,09,01,12,24,14.80
2008,09,01,12,25,14.80
2008,09,01,12,26,14.80
2008,09,01,12,27,14.80
2008,09,01,12,28,14.80
2008,09,01,12,29,14.80
2008,09,01,12,30,14.80
2008,09,01,12,31,14.80
2008,09,01,12,32,14.80
2008,09,01,12,33,14.80
2008,09,01,12,34,14.80
2008,09,01,12,35,14.80
2008,09,01,12,36,14.80
2008,09,01,12,37,14.80
2008,09,01,12,38,14.80
2008,09,01,12,39,14.80
2008,09,01,12,40,14.90
2008,09,01,12,41,14.90
2008,09,01,12,42,14.90
2008,09,01,12,43,14.90
2008,09,01,12,44,15.00
2008,09,01,12,45,15.00
2008,09,01,12,46,15.10
2008,09,01,12,47,15.20
2008,09,01,12,48,15.30
2008,09,01,12,49,15.30
2008,09,01,12,50,15.40
2008,09,01,12,51,15.50
2008,09,01,12,52,15.50
2008,09,01,12,53,15.60
2008,09,01,12,54,15.60
2008,09,01,12,55,15.70
2008,09,01,12,56,15.70
2008,09,01,12,57,15.70
2008,09,01,12,58,15.70
2008,09,01,12,59,15.80
2008,09,01,13,00,15.80
2008,09,01,13,01,15.80
2008,09,01,13,02,15.80
2008,09,01,13,03,15.90
2008,09,01,13,04,16.10
2008,09,01,13,05,16.10
2008,09,01,13,06,16.10
2008,09,01,13,07,16.20
2008,09,01,13,08,16.20
2008,09,01,13,09,16.20
2008,09,01,13,10,16.20
2008,09,01,13,11,16.20
2008,09,01,13,12,16.20
2008,09,01,13,13,16.20
2008,09,01,13,14,16.20
2008,09,01,13,15,16.20
2008,09,01,13,16,16.20
2008,09,01,13,17,16.20
2008,09,01,13,18,16.10
2008,09,01,13,19,16.10
2008,09,01,13,20,16.10
2008,09,01,13,21,16.10
2008,09,01,13,22,16.10
2008,09,01,13,23,16.10
2008,09,01,13,24,16.10
2008,09,01,13,25,16.10
2008,09,01,13,26,16.10
2008,09,01,13,27,16.10
2008,09,01,13,28,16.20
2008,09,01,13,29,16.30
2008,09,01,13,30,16.40
2008,09,01,13,31,16.40
2008,09,01,13,32,16.40
2008,09,01,13,33,16.40
2008,09,01,13,34,16.40
2008,09,01,13,35,16.40
2008,09,01,13,36,16.40
2008,09,01,13,37,16.50
2008,09,01,13,38,16.60
2008,09,01,13,39,16.60
2008,09,01,13,40,16.60
2008,09,01,13,41,16.60
2008,09,01,13,42,16.60
2008,09,01,13,43,16.50
2008,09,01,13,44,16.40
2008,09,01,13,45,16.40
2008,09,01,13,46,16.40
2008,09,01,13,47,16.40
2008,09,01,13,48,16.40
2008,09,01,13,49,16.40
2008,09,01,13,50,16.40
2008,09,01,13,51,16.40
2008,09,01,13,52,16.40
2008,09,01,13,53,16.40
2008,09,01,13,54,16.40
2008,09,01,13,55,16.40
2008,09,01,13,56,16.40
2008,09,01,13,57,16.50
2008,09,01,13,58,16.60
2008,09,01,13,59,16.60
2008,09,01,14,00,16.70
2008,09,01,14,01,16.70
2008,09,01,14,02,16.70
2008,09,01,14,03,16.80
2008,09,01,14,04,16.80
2008,09,01,14,05,16.90
2008,09,01,14,06,16.90
2008,09,01,14,07,17.00
2008,09,01,14,08,17.00
2008,09,01,14,09,17.10
2008,09,01,14,10,17.20
2008,09,01,14,11,17.20
2008,09,01,14,12,17.30
2008,09,01,14,13,17.20
2008,09,01,14,14,17.10
2008,09,01,14,15,17.00
2008,09,01,14,16,17.00
2008,09,01,14,17,16.90
2008,09,01,14,18,16.90
2008,09,01,14,19,16.80
2008,09,01,14,20,16.70
2008,09,01,14,21,16.70
2008,09,01,14,22,16.60
2008,09,01,14,23,16.60
2008,09,01,14,24,16.60
2008,09,01,14,25,16.60
2008,09,01,14,26,16.50
2008,09,01,14,27,16.60
2008,09,01,14,28,16.60
2008,09,01,14,29,16.60
2008,09,01,14,30,16.60
2008,09,01,14,31,16.70
2008,09,01,14,32,16.70
2008,09,01,14,33,16.70
2008,09,01,14,34,16.70
2008,09,01,14,35,16.70
2008,09,01,14,36,16.70
2008,09,01,14,37,16.80
2008,09,01,14,38,16.90
2008,09,01,14,39,17.00
2008,09,01,14,40,17.10
2008,09,01,14,41,17.20
2008,09,01,14,42,17.20
2008,09,01,14,43,17.20
2008,09,01,14,44,17.20
2008,09,01,14,45,17.30
2008,09,01,14,46,17.30
2008,09,01,14,47,17.30
2008,09,01,14,48,17.30
2008,09,01,14,49,17.30
2008,09,01,14,50,17.30
2008,09,01,14,51,17.30
2008,09,01,14,52,17.20
2008,09,01,14,53,17.20
2008,09,01,14,54,17.10
2008,09,01,14,55,17.10
2008,09,01,14,56,17.10
2008,09,01,14,57,17.00
2008,09,01,14,58,17.00
2008,09,01,14,59,17.00
2008,09,01,15,00,17.00
2008,09,01,15,01,17.00
2008,09,01,15,02,17.10
2008,09,01,15,03,17.10
2008,09,01,15,04,17.10
2008,09,01,15,05,17.10
2008,09,01,15,06,17.10
2008,09,01,15,07,17.10
2008,09,01,15,08,17.10
2008,09,01,15,09,17.10
2008,09,01,15,10,17.20
2008,09,01,15,11,17.20
2008,09,01,15,12,17.20
2008,09,01,15,13,17.30
2008,09,01,15,14,17.30
2008,09,01,15,15,17.50
2008,09,01,15,16,17.50
2008,09,01,15,17,17.60
2008,09,01,15,18,17.70
2008,09,01,15,19,17.80
2008,09,01,15,20,17.90
2008,09,01,15,21,18.10
2008,09,01,15,22,18.20
2008,09,01,15,23,18.20
2008,09,01,15,24,18.20
2008,09,01,15,25,18.20
2008,09,01,15,26,18.30
2008,09,01,15,27,18.30
2008,09,01,15,28,18.30
2008,09,01,15,29,18.30
2008,09,01,15,30,18.30
2008,09,01,15,31,18.40
2008,09,01,15,32,18.40
2008,09,01,15,33,18.40
2008,09,01,15,34,18.50
2008,09,01,15,35,18.60
2008,09,01,15,36,18.60
2008,09,01,15,37,18.50
2008,09,01,15,38,18.50
2008,09,01,15,39,18.60
2008,09,01,15,40,18.60
2008,09,01,15,41,18.60
2008,09,01,15,42,18.60
2008,09,01,15,43,18.60
2008,09,01,15,44,18.60
2008,09,01,15,45,18.60
2008,09,01,15,46,18.50
2008,09,01,15,47,18.50
2008,09,01,15,48,18.40
2008,09,01,15,49,18.20
2008,09,01,15,50,18.20
2008,09,01,15,51,18.20
2008,09,01,15,52,18.10
2008,09,01,15,53,18.10
2008,09,01,15,54,18.10
2008,09,01,15,55,18.10
2008,09,01,15,56,17.90
2008,09,01,15,57,17.90
2008,09,01,15,58,17.80
2008,09,01,15,59,17.80
2008,09,01,16,00,17.80
2008,09,01,16,01,17.80
2008,09,01,16,02,17.80
2008,09,01,16,03,17.80
2008,09,01,16,04,17.80
2008,09,01,16,05,17.90
2008,09,01,16,06,17.90
2008,09,01,16,07,17.90
2008,09,01,16,08,17.90
2008,09,01,16,09,17.90
2008,09,01,16,10,17.90
2008,09,01,16,11,17.90
2008,09,01,16,12,17.90
2008,09,01,16,13,17.90
2008,09,01,16,14,17.90
2008,09,01,16,15,17.90
2008,09,01,16,16,17.90
2008,09,01,16,17,17.90
2008,09,01,16,18,17.90
2008,09,01,16,19,17.90
2008,09,01,16,20,17.90
2008,09,01,16,21,18.00
2008,09,01,16,22,18.10
2008,09,01,16,23,18.10
2008,09,01,16,24,18.10
2008,09,01,16,25,18.10
2008,09,01,16,26,18.10
2008,09,01,16,27,18.10
2008,09,01,16,28,18.10
2008,09,01,16,29,18.10
2008,09,01,16,30,18.10
2008,09,01,16,31,18.10
2008,09,01,16,32,18.10
2008,09,01,16,33,17.90
2008,09,01,16,34,17.90
2008,09,01,16,35,17.90
2008,09,01,16,36,17.90
2008,09,01,16,37,17.80
2008,09,01,16,38,17.80
2008,09,01,16,39,17.80
2008,09,01,16,40,17.80
2008,09,01,16,41,17.90
2008,09,01,16,42,17.90
2008,09,01,16,43,17.90
2008,09,01,16,44,17.90
2008,09,01,16,45,17.90
2008,09,01,16,46,17.90
2008,09,01,16,47,17.90
2008,09,01,16,48,17.80
2008,09,01,16,49,17.80
2008,09,01,16,50,17.80
2008,09,01,16,51,17.80
2008,09,01,16,52,17.80
2008,09,01,16,53,17.80
2008,09,01,16,54,17.80
2008,09,01,16,55,17.90
2008,09,01,16,56,17.80
2008,09,01,16,57,17.80
2008,09,01,16,58,17.80
2008,09,01,16,59,17.70
2008,09,01,17,00,17.70
2008,09,01,17,01,17.70
2008,09,01,17,02,17.70
2008,09,01,17,03,17.80
2008,09,01,17,04,17.70
2008,09,01,17,05,17.70
2008,09,01,17,06,17.70
2008,09,01,17,07,17.70
2008,09,01,17,08,17.70
2008,09,01,17,09,17.70
2008,09,01,17,10,17.60
2008,09,01,17,11,17.60
2008,09,01,17,12,17.60
2008,09,01,17,13,17.60
2008,09,01,17,14,17.60
2008,09,01,17,15,17.60
2008,09,01,17,16,17.60
2008,09,01,17,17,17.60
2008,09,01,17,18,17.60
2008,09,01,17,19,17.60
2008,09,01,17,20,17.60
2008,09,01,17,21,17.50
2008,09,01,17,22,17.50
2008,09,01,17,23,17.50
2008,09,01,17,24,17.40
2008,09,01,17,25,17.40
2008,09,01,17,26,17.30
2008,09,01,17,27,17.30
2008,09,01,17,28,17.30
2008,09,01,17,29,17.30
2008,09,01,17,30,17.30
2008,09,01,17,31,17.30
2008,09,01,17,32,17.30
2008,09,01,17,33,17.30
2008,09,01,17,34,17.30
2008,09,01,17,35,17.30
2008,09,01,17,36,17.30
2008,09,01,17,37,17.30
2008,09,01,17,38,17.30
2008,09,01,17,39,17.30
2008,09,01,17,40,17.30
2008,09,01,17,41,17.30
2008,09,01,17,42,17.30
2008,09,01,17,43,17.30